DW2213 Weather Reports


Display with metric or nautical units.
time (UTC)temp
F
wind
direction
speed
MPH
gust
MPH
rain 1hr
in
rain 24hr
in
rain mn
in
humidity
%
barometer
mb
20260901062309 78 62 0.0 0.0 0.00 0.00 0.00 88 1013.7
20260901061804 78 63 0.0 0.0 0.00 0.00 0.00 88 1013.9
20260901061304 78 49 0.0 0.0 0.00 0.00 0.00 88 1014.1
20260901060804 78 49 0.0 0.0 0.00 0.00 0.00 88 1013.9
20260901060304 78 49 0.0 0.0 0.00 0.00 0.00 89 1013.9
20260901055805 77 49 0.0 0.0 0.00 0.00 0.00 89 1013.8
20260901055306 77 49 0.0 0.0 0.00 0.00 0.00 89 1013.9
20260901054804 77 49 0.0 0.0 0.00 0.00 0.00 89 1013.9
20260901053804 77 49 0.0 0.0 0.00 0.00 0.00 89 1013.8
20260901053304 77 49 0.0 0.0 0.00 0.00 0.00 89 1013.5
20260901052805 77 47 0.0 0.0 0.00 0.00 0.00 89 1013.5
20260901052307 77 47 0.0 0.0 0.00 0.00 0.00 89 1013.5
20260901051304 77 47 0.0 0.0 0.00 0.00 0.00 89 1013.6
20260901050804 77 47 0.0 0.0 0.00 0.00 0.00 89 1013.6
20260901050304 77 48 0.0 0.0 0.00 0.00 0.00 89 1013.4
20260901045804 77 46 0.0 0.0 0.00 0.00 0.00 89 1013.4
20260901044804 77 44 0.0 0.0 0.00 0.00 0.00 90 1013.2
20260901044304 77 47 0.0 1.0 0.00 0.00 0.00 90 1013.1
20260901043804 78 47 0.0 2.0 0.00 0.00 0.00 90 1013.0
20260901043304 78 37 0.0 0.0 0.00 0.00 0.00 90 1013.2
20260901042805 78 19 0.0 0.0 0.00 0.00 0.00 90 1013.2
20260901041804 78 31 0.0 0.0 0.00 0.00 0.00 90 1013.5
20260901041305 78 31 0.0 0.0 0.00 0.00 0.00 90 1013.6
20260901040804 78 31 0.0 0.0 0.00 0.00 0.00 90 1013.6
20260901040305 78 31 0.0 0.0 0.00 0.00 0.00 90 1013.7
20260901035805 78 31 0.0 0.0 0.00 0.00 0.00 90 1013.6
20260901035305 78 31 0.0 0.0 0.00 0.00 0.00 90 1013.6
20260901034804 78 31 0.0 0.0 0.00 0.00 0.00 90 1013.6
20260901034304 78 31 0.0 0.0 0.00 0.00 0.00 90 1013.6
20260901033804 78 31 0.0 0.0 0.00 0.00 0.00 90 1013.6
20260901032804 78 31 0.0 0.0 0.00 0.00 0.00 90 1013.6
20260901032306 78 31 0.0 0.0 0.00 0.00 0.00 90 1013.7
20260901031805 78 31 0.0 0.0 0.00 0.00 0.00 89 1013.8
20260901031304 78 31 0.0 0.0 0.00 0.00 0.00 89 1013.8
20260901030805 78 31 0.0 0.0 0.00 0.00 0.00 89 1013.8
20260901030304 78 31 0.0 0.0 0.00 0.00 0.00 89 1013.8
20260901025804 78 31 0.0 0.0 0.00 0.00 0.00 89 1013.7
20260901024304 78 31 0.0 0.0 0.00 0.00 0.00 89 1013.7
20260901023804 78 31 0.0 0.0 0.00 0.00 0.00 88 1013.7
20260901023304 78 31 0.0 0.0 0.00 0.00 0.00 88 1013.8
20260901022805 78 31 0.0 0.0 0.00 0.00 0.00 88 1013.9
20260901022306 79 31 0.0 0.0 0.00 0.00 0.00 88 1013.9
20260901021804 79 31 0.0 0.0 0.00 0.00 0.00 88 1014.0
20260901021304 79 31 0.0 0.0 0.00 0.00 0.00 88 1014.0
20260901020804 79 31 0.0 0.0 0.00 0.00 0.00 88 1014.0
20260901020304 79 31 0.0 0.0 0.00 0.00 0.00 88 1014.0
20260901015804 79 31 0.0 0.0 0.00 0.00 0.00 88 1014.0
20260901015305 79 31 0.0 0.0 0.00 0.00 0.00 88 1014.0
20260901014804 79 31 0.0 0.0 0.00 0.00 0.00 88 1014.1
20260901014304 79 31 0.0 0.0 0.00 0.00 0.00 88 1014.2
20260901013804 79 31 0.0 0.0 0.00 0.00 0.00 88 1014.2
20260901012306 79 31 0.0 0.0 0.00 0.00 0.00 88 1014.3
20260901011804 79 31 0.0 0.0 0.00 0.00 0.00 88 1014.3
20260901011304 79 31 0.0 0.0 0.00 0.00 0.00 87 1014.3
20260901010804 79 31 0.0 0.0 0.00 0.00 0.00 87 1014.5
20260901005307 79 31 0.0 0.0 0.00 0.00 0.00 87 1014.6
20260901004804 79 31 0.0 0.0 0.00 0.00 0.00 87 1014.6
20260901004304 79 31 0.0 0.0 0.00 0.00 0.00 87 1014.6
20260901003805 79 36 0.0 0.0 0.00 0.00 0.00 87 1014.7
20260901003304 79 44 1.0 2.0 0.00 0.00 0.00 87 1014.7
20260901002805 79 44 0.0 2.0 0.00 0.00 0.00 87 1014.6
20260901002305 79 44 0.0 1.0 0.00 0.00 0.00 87 1014.7
20260901001804 79 44 0.0 1.0 0.00 0.00 0.00 87 1014.7
20260901001304 79 44 0.0 1.0 0.00 0.00 0.00 87 1014.6
20260901000804 80 43 0.0 2.0 0.00 0.00 0.00 87 1014.6
20260901000304 80 347 0.0 1.0 0.00 0.00 0.00 87 1014.7
20260831235804 80 24 0.0 3.0 0.00 0.00 0.00 87 1014.7
20260831235306 80 34 0.0 0.0 0.00 0.00 0.00 87 1014.8
20260831234804 80 34 0.0 3.0 0.00 0.00 0.00 87 1014.8
20260831234305 80 27 0.0 2.0 0.00 0.00 0.00 87 1014.8
20260831233804 80 25 0.0 2.0 0.00 0.00 0.00 87 1014.8
20260831233305 80 0 0.0 3.0 0.00 0.00 0.00 87 1014.8
20260831232804 80 0 0.0 3.0 0.00 0.00 0.00 87 1014.8
20260831231304 80 19 0.0 3.0 0.00 0.00 0.00 86 1014.8
20260831230803 80 102 0.0 1.0 0.00 0.00 0.00 86 1014.8
20260831230304 80 102 0.0 1.0 0.00 0.00 0.00 86 1014.8
20260831225804 80 102 0.0 0.0 0.00 0.00 0.00 86 1014.8
20260831225306 80 102 0.0 1.0 0.00 0.00 0.00 86 1014.7
20260831224304 81 102 0.0 2.0 0.00 0.00 0.00 86 1014.8
20260831223804 81 102 0.0 1.0 0.00 0.00 0.00 85 1014.7
20260831223304 80 102 0.0 0.0 0.00 0.00 0.00 85 1014.7
20260831222804 80 102 0.0 0.0 0.00 0.00 0.00 85 1014.8
20260831221804 80 102 0.0 0.0 0.00 0.00 0.00 85 1014.7
20260831220819 80 102 0.0 2.0 0.00 0.00 0.00 85 1014.6
20260831220305 80 87 0.0 1.0 0.00 0.00 0.00 85 1014.5
20260831215804 80 86 0.0 0.0 0.00 0.00 0.00 85 1014.4
20260831215306 80 86 0.0 1.0 0.00 0.00 0.00 85 1014.4
20260831214304 81 86 0.0 1.0 0.00 0.00 0.00 85 1014.4
20260831213804 81 86 0.0 0.0 0.00 0.00 0.00 85 1014.4
20260831213304 81 86 0.0 0.0 0.00 0.00 0.00 85 1014.3
20260831212804 81 86 0.0 0.0 0.00 0.00 0.00 85 1014.2
20260831212306 81 86 0.0 1.0 0.00 0.00 0.00 85 1014.2
20260831211804 81 86 0.0 2.0 0.00 0.00 0.00 85 1014.2
20260831211304 81 86 0.0 2.0 0.00 0.00 0.00 85 1014.1
20260831210304 81 104 0.0 1.0 0.00 0.00 0.00 85 1014.1
20260831205804 81 104 0.0 2.0 0.00 0.00 0.00 85 1014.1
20260831205305 81 104 0.0 2.0 0.00 0.00 0.00 85 1014.1
20260831203803 81 107 0.0 2.0 0.00 0.00 0.00 84 1014.0
20260831203304 81 102 0.0 2.0 0.00 0.00 0.00 84 1013.9
20260831201804 81 132 0.0 2.0 0.00 0.00 0.00 83 1013.7
20260831201304 81 135 1.0 5.0 0.00 0.00 0.00 83 1013.7
20260831200803 81 78 0.0 2.0 0.00 0.00 0.00 83 1013.7
20260831200303 81 77 0.0 0.0 0.00 0.00 0.00 83 1013.7
20260831195804 81 77 0.0 2.0 0.00 0.00 0.00 83 1013.6
20260831195306 81 79 0.0 3.0 0.00 0.00 0.00 83 1013.5
20260831194803 81 85 0.0 2.0 0.00 0.00 0.00 82 1013.3
20260831194304 81 85 1.0 2.0 0.00 0.00 0.00 82 1013.2
20260831193804 81 9 0.0 1.0 0.00 0.00 0.00 82 1013.1
20260831193304 81 10 0.0 0.0 0.00 0.00 0.00 82 1012.9
20260831192804 81 9 1.0 3.0 0.00 0.00 0.00 82 1012.9
20260831192305 81 66 0.0 2.0 0.00 0.00 0.00 82 1012.8
20260831191303 81 63 0.0 1.0 0.00 0.00 0.00 82 1012.7
20260831190804 81 56 0.0 2.0 0.00 0.00 0.00 82 1012.6
20260831190304 81 77 1.0 7.0 0.00 0.00 0.00 81 1012.5
20260831185804 81 120 0.0 2.0 0.00 0.00 0.00 81 1012.5
20260831185306 81 121 0.0 1.0 0.00 0.00 0.00 81 1012.5
20260831184803 81 121 0.0 3.0 0.00 0.00 0.00 81 1012.5
20260831184304 81 332 0.0 3.0 0.00 0.00 0.00 81 1012.5
20260831183303 81 140 0.0 3.0 0.00 0.00 0.00 81 1012.3
20260831182804 81 131 0.0 1.0 0.00 0.00 0.00 80 1012.3
20260831182305 81 121 0.0 6.0 0.00 0.00 0.00 80 1012.3
20260831181804 81 136 0.0 2.0 0.00 0.00 0.00 80 1012.3
20260831181304 81 136 0.0 3.0 0.00 0.00 0.00 79 1012.3
20260831180804 82 145 1.0 3.0 0.00 0.00 0.00 79 1012.3
20260831180304 82 128 1.0 5.0 0.00 0.00 0.00 79 1012.2
20260831175803 82 112 1.0 6.0 0.00 0.00 0.00 78 1012.2
20260831174804 82 134 1.0 5.0 0.00 0.00 0.00 77 1012.2
20260831174304 82 133 1.0 5.0 0.00 0.00 0.00 76 1012.2
20260831172803 83 135 1.0 5.0 0.00 0.00 0.00 75 1012.0
20260831172306 83 117 0.0 5.0 0.00 0.00 0.00 74 1012.0
20260831171304 83 145 1.0 5.0 0.00 0.00 0.00 74 1011.9
20260831170305 84 130 1.0 5.0 0.00 0.00 0.00 72 1011.9
20260831165805 84 137 1.0 7.0 0.00 0.00 0.00 71 1011.9
20260831164805 85 147 2.0 5.0 0.00 0.00 0.00 69 1012.0
20260831164305 86 128 2.0 6.0 0.00 0.00 0.00 69 1012.0
20260831163805 86 138 2.0 6.0 0.00 0.00 0.00 68 1012.0
20260831162306 87 113 2.0 6.0 0.00 0.00 0.00 64 1012.2
20260831161305 88 132 1.0 5.0 0.00 0.00 0.00 56 1012.2
20260831160805 88 129 1.0 5.0 0.00 0.00 0.00 56 1012.2
20260831160305 89 151 2.0 5.0 0.00 0.00 0.00 54 1012.3
20260831155805 89 115 1.0 3.0 0.00 0.00 0.00 54 1012.3
20260831154805 88 144 2.0 5.0 0.00 0.00 0.00 55 1012.4
20260831154305 88 118 1.0 5.0 0.00 0.00 0.00 55 1012.5
20260831153805 88 142 2.0 8.0 0.00 0.00 0.00 56 1012.4
20260831152804 88 152 2.0 6.0 0.00 0.00 0.00 58 1012.5
20260831152306 88 145 2.0 5.0 0.00 0.00 0.00 59 1012.5
20260831151804 88 127 1.0 5.0 0.00 0.00 0.00 61 1012.5
20260831151305 88 144 1.0 3.0 0.00 0.00 0.00 63 1012.5
20260831150805 88 151 1.0 6.0 0.00 0.00 0.00 66 1012.6
20260831150305 87 153 0.0 5.0 0.00 0.00 0.00 67 1012.6
20260831145805 88 144 0.0 3.0 0.00 0.00 0.00 67 1012.5
20260831145306 88 127 1.0 5.0 0.00 0.00 0.00 67 1012.5
20260831144805 88 150 2.0 6.0 0.00 0.00 0.00 67 1012.6
20260831144304 88 165 2.0 5.0 0.00 0.00 0.00 67 1012.6
20260831143805 88 141 3.0 6.0 0.00 0.00 0.00 67 1012.6
20260831143305 88 140 2.0 6.0 0.00 0.00 0.00 67 1012.7
20260831142805 88 132 2.0 5.0 0.00 0.00 0.00 67 1012.7
20260831142306 88 133 2.0 5.0 0.00 0.00 0.00 67 1012.6
20260831141805 88 160 2.0 8.0 0.00 0.00 0.00 67 1012.6
20260831141305 87 186 2.0 6.0 0.00 0.00 0.00 69 1012.6
20260831140804 87 142 1.0 5.0 0.00 0.00 0.00 68 1012.7
20260831135805 88 147 0.0 7.0 0.00 0.00 0.00 67 1012.8
20260831135306 87 158 1.0 5.0 0.00 0.00 0.00 70 1012.7
20260831134805 87 119 1.0 5.0 0.00 0.00 0.00 69 1012.8
20260831134305 87 13 2.0 5.0 0.00 0.00 0.00 67 1012.8
20260831133805 88 74 1.0 3.0 0.00 0.00 0.00 65 1012.9
20260831133305 88 46 1.0 3.0 0.00 0.00 0.00 65 1012.9
20260831132805 88 342 1.0 3.0 0.00 0.00 0.00 66 1012.9
20260831132307 87 7 2.0 3.0 0.00 0.00 0.00 66 1012.8
20260831131805 88 1 2.0 6.0 0.00 0.00 0.00 65 1012.9
20260831131305 88 331 1.0 3.0 0.00 0.00 0.00 66 1012.9
20260831130805 88 88 1.0 5.0 0.00 0.00 0.00 66 1012.9
20260831130304 88 50 1.0 5.0 0.00 0.00 0.00 65 1012.9
20260831125805 87 50 0.0 3.0 0.00 0.00 0.00 67 1013.0
20260831125306 87 60 2.0 6.0 0.00 0.00 0.00 67 1013.1
20260831124804 87 53 2.0 6.0 0.00 0.00 0.00 66 1013.1
20260831124304 88 326 1.0 3.0 0.00 0.00 0.00 66 1013.2
20260831123304 88 24 1.0 3.0 0.00 0.00 0.00 65 1013.3
20260831122805 88 355 1.0 5.0 0.00 0.00 0.00 65 1013.3
20260831122306 88 98 1.0 5.0 0.00 0.00 0.00 67 1013.4
20260831121804 87 106 1.0 3.0 0.00 0.00 0.00 65 1013.4
20260831121304 87 56 0.0 3.0 0.00 0.00 0.00 65 1013.5
20260831120304 87 22 1.0 3.0 0.00 0.00 0.00 66 1013.4
20260831115805 88 264 1.0 3.0 0.00 0.00 0.00 65 1013.5
20260831115306 87 38 0.0 3.0 0.00 0.00 0.00 67 1013.6
20260831114805 87 46 1.0 3.0 0.00 0.00 0.00 67 1013.6
20260831114304 87 26 1.0 5.0 0.00 0.00 0.00 66 1013.6
20260831113804 87 356 0.0 3.0 0.00 0.00 0.00 65 1013.5
20260831113305 87 354 1.0 5.0 0.00 0.00 0.00 66 1013.6
20260831112805 87 41 1.0 6.0 0.00 0.00 0.00 67 1013.7
20260831112307 86 47 1.0 3.0 0.00 0.00 0.00 67 1013.7
20260831111805 86 0 2.0 5.0 0.00 0.00 0.00 66 1013.7
20260831111305 87 13 1.0 3.0 0.00 0.00 0.00 67 1013.8
20260831110805 86 330 1.0 5.0 0.00 0.00 0.00 67 1013.8
20260831110305 86 323 1.0 3.0 0.00 0.00 0.00 67 1013.9
20260831105306 86 346 0.0 3.0 0.00 0.00 0.00 67 1014.1
20260831103804 86 59 1.0 5.0 0.00 0.00 0.00 68 1014.1
20260831103304 86 48 0.0 2.0 0.00 0.00 0.00 69 1014.1
20260831102804 84 74 1.0 5.0 0.00 0.00 0.00 71 1014.1
20260831102306 84 1 1.0 6.0 0.00 0.00 0.00 71 1014.1
20260831101805 85 37 1.0 3.0 0.00 0.00 0.00 69 1014.1
20260831101304 85 29 1.0 3.0 0.00 0.00 0.00 70 1014.0
20260831100805 84 0 1.0 5.0 0.00 0.00 0.00 72 1014.1
20260831095306 84 38 1.0 5.0 0.00 0.00 0.00 72 1014.1
20260831094805 84 93 0.0 2.0 0.00 0.00 0.00 72 1014.1
20260831093304 84 96 1.0 3.0 0.00 0.00 0.00 71 1014.0
20260831092805 84 48 1.0 3.0 0.00 0.00 0.00 71 1014.0
20260831092306 84 37 1.0 3.0 0.00 0.00 0.00 71 1014.0
20260831091805 84 345 0.0 3.0 0.00 0.00 0.00 71 1013.9
20260831091304 83 320 0.0 1.0 0.00 0.00 0.00 72 1013.9
20260831090805 83 318 0.0 0.0 0.00 0.00 0.00 72 1013.8
20260831090305 82 309 0.0 0.0 0.00 0.00 0.00 73 1013.8
20260831085805 82 294 0.0 0.0 0.00 0.00 0.00 72 1013.7
20260831085306 82 294 0.0 0.0 0.00 0.00 0.00 73 1013.7
20260831084805 82 294 0.0 0.0 0.00 0.00 0.00 72 1013.6
20260831084305 81 295 0.0 0.0 0.00 0.00 0.00 73 1013.5
20260831083805 81 295 0.0 0.0 0.00 0.00 0.00 73 1013.4
20260831083305 80 294 0.0 0.0 0.00 0.00 0.00 74 1013.3
20260831082805 81 294 0.0 0.0 0.00 0.00 0.00 73 1013.3
20260831082306 80 297 0.0 0.0 0.00 0.00 0.00 74 1013.2
20260831081805 80 319 0.0 0.0 0.00 0.00 0.00 76 1013.2
20260831081305 79 313 0.0 0.0 0.00 0.00 0.00 76 1013.1
20260831080804 79 314 0.0 0.0 0.00 0.00 0.00 76 1013.1
20260831080305 79 314 0.0 0.0 0.00 0.00 0.00 77 1013.0
20260831075804 78 223 0.0 0.0 0.00 0.00 0.00 77 1012.9
20260831074304 78 223 0.0 0.0 0.00 0.00 0.00 79 1012.9
20260831073805 78 223 0.0 0.0 0.00 0.00 0.00 79 1012.9
20260831072804 77 223 0.0 0.0 0.00 0.00 0.00 80 1012.9
20260831072306 77 223 0.0 0.0 0.00 0.00 0.00 82 1012.9
20260831071805 76 223 0.0 0.0 0.00 0.00 0.00 82 1012.8
20260831070805 76 223 0.0 0.0 0.00 0.00 0.00 83 1012.7
20260831070304 75 223 0.0 0.0 0.00 0.00 0.00 83 1012.7
20260831065804 75 223 0.0 0.0 0.00 0.00 0.00 84 1012.7
20260831065306 75 223 0.0 0.0 0.00 0.00 0.00 85 1012.7
20260831064304 74 222 0.0 0.0 0.00 0.00 0.00 86 1012.5
20260831063804 74 222 0.0 0.0 0.00 0.00 0.00 86 1012.4
20260831063305 74 222 0.0 0.0 0.00 0.00 0.00 86 1012.4